METEOR-M 2

Last updated on Thu Oct 30 2025 00:02:23 GMT+0000 (Coordinated Universal Time)

1 40069U 14037A 25302.47022303 .00000251 00000+0 13423-3 0 9990 2 40069 98.4857 281.7621 0005690 359.2118 0.9050 14.21359794586545
UTC large
Height (km)
Speed (km/s)
/
Latitude / Longitude
Inclination (degrees)
Orbital Period (minutes)
Azimuth
Elevation
Range (km)
Doppler Factor

Next 0 passes for location: London (51.5072 / 0.1276)

Sorry there are no passes over London.